Temp
1 1 1 1 1 1 1 2 2 2 2 3 3 3 3 3 4 5 5 5 6 6
0 -0 -1 -1 -0 0 1 1 1 1 1 2 2 3 2 2 3 3 4 5 5 5
-1 -2 -2 -2 -2 -2 -1 -1 -0 0 0 1 2 2 2 2 2 2 3 4 4 5
-2 -3 -3 -3 -3 -3 -3 -2 -2 -1 -0 0 1 2 2 1 1 1 2 3 4 4
-4 -4 -4 -3 -3 -3 -3 -2 -3 -3 -2 -1 0 1 1 1 1 2 3 3 3 4
-4 -5 -4 -4 -4 -4 -4 -4 -4 -4 -3 -2 -2 -1 -1 1 1 2 2 3 3 4
-5 -5 -5 -5 -5 -5 -5 -5 -4 -4 -4 -3 -3 -3 -1 -0 1 1 2 3 4 4
-6 -6 -6 -6 -6 -6 -6 -5 -5 -5 -4 -4 -4 -4 -3 -2 -2 -0 2 3 4 4
-7 -7 -7 -7 -7 -7 -6 -6 -6 -5 -5 -4 -4 -5 -4 -3 -2 -2 0 2 3 4
-7 -7 -7 -7 -7 -7 -7 -7 -6 -5 -5 -5 -5 -4 -4 -3 -2 -1 0 2 2 4
-8 -8 -7 -7 -8 -8 -7 -7 -6 -6 -5 -5 -5 -4 -4 -3 -2 -1 0 2 2 3
-8 -8 -8 -8 -8 -8 -8 -7 -6 -6 -5 -5 -5 -4 -3 -2 -1 -0 0 2 3 3
-8 -8 -8 -8 -8 -8 -7 -6 -6 -5 -5 -5 -5 -3 -2 -1 -1 -0 1 2 3 3
-8 -8 -8 -8 -7 -7 -6 -5 -5 -5 -4 -4 -4 -3 -2 -2 -1 -0 1 2 3 3
Height
1508 1504 1500 1496 1491 1487 1484 1481 1479 1477 1474 1472 1470 1469 1467 1465 1465 1466 1468 1470 1472 1472
1500 1496 1492 1488 1485 1480 1477 1474 1471 1469 1467 1465 1464 1463 1461 1459 1458 1458 1459 1461 1464 1465
1491 1488 1484 1479 1476 1473 1470 1467 1464 1462 1460 1457 1456 1455 1454 1453 1452 1452 1451 1452 1455 1456
1485 1480 1476 1471 1468 1464 1461 1458 1456 1455 1453 1450 1448 1447 1446 1446 1445 1443 1444 1444 1446 1448
1478 1473 1468 1464 1460 1456 1453 1450 1448 1446 1444 1442 1440 1439 1438 1437 1436 1435 1436 1436 1437 1439
1471 1466 1461 1457 1453 1450 1446 1444 1442 1439 1437 1434 1433 1431 1430 1429 1427 1427 1427 1428 1429 1430
1465 1460 1455 1450 1446 1443 1440 1436 1433 1431 1428 1425 1424 1423 1421 1419 1418 1417 1417 1419 1420 1421
1459 1454 1449 1444 1439 1435 1431 1428 1425 1422 1419 1417 1416 1414 1413 1411 1409 1408 1408 1409 1411 1410
1453 1447 1442 1437 1431 1427 1423 1420 1417 1414 1411 1408 1406 1405 1404 1404 1401 1399 1399 1399 1401 1403
1447 1441 1436 1430 1425 1420 1415 1411 1409 1406 1403 1400 1398 1397 1395 1394 1393 1391 1390 1390 1391 1395
1441 1435 1429 1424 1419 1413 1409 1405 1401 1398 1396 1393 1390 1388 1386 1385 1383 1381 1380 1381 1383 1385
1435 1428 1424 1418 1413 1408 1404 1399 1396 1393 1389 1386 1382 1380 1377 1376 1374 1372 1371 1374 1376 1378
1430 1423 1417 1412 1407 1403 1399 1394 1390 1386 1382 1378 1374 1372 1370 1368 1365 1364 1365 1367 1368 1373
1425 1418 1413 1407 1403 1398 1393 1389 1384 1379 1375 1372 1369 1366 1365 1362 1360 1359 1361 1362 1364 1368
Wind_Speed
35 35 36 36 35 34 32 31 28 27 26 24 22 22 21 22 27 27 27 31 30 27
36 35 34 33 31 31 31 30 30 28 28 26 25 22 21 21 23 27 29 28 27 28
36 34 32 31 30 29 28 28 29 28 28 27 26 24 21 22 23 25 27 29 28 28
34 32 31 30 29 28 28 27 28 27 27 28 28 26 24 22 22 26 26 27 29 29
32 31 31 30 28 28 28 27 27 27 27 27 28 27 26 25 22 26 27 24 26 30
32 31 31 30 30 29 29 28 27 27 27 27 27 28 27 27 25 24 28 26 27 30
32 31 31 31 31 30 29 29 28 27 28 27 28 26 29 28 27 25 27 30 27 30
31 30 31 31 31 31 30 29 28 28 27 27 26 26 28 27 27 27 28 32 33 28
32 31 32 32 33 32 31 28 27 27 27 27 27 26 28 27 28 28 29 30 35 31
32 32 33 33 33 32 30 28 26 26 24 26 26 27 28 25 25 27 29 30 27 34
33 34 33 32 31 31 29 27 26 25 22 25 28 27 26 25 25 27 29 25 26 25
34 35 33 31 30 30 29 27 24 23 24 27 27 25 23 20 24 26 26 29 26 25
34 34 31 30 28 28 26 26 24 25 26 23 23 18 14 17 20 22 20 23 22 26
32 31 29 28 25 26 26 25 25 27 24 21 18 16 15 16 14 17 15 15 15 17
Wind_Direction
313 311 310 310 310 309 306 304 304 303 303 301 299 299 299 275 254 249 247 246 252 250
313 314 312 309 307 304 301 298 297 297 296 297 295 293 292 284 267 254 248 248 248 249
315 314 313 311 309 305 299 295 292 291 291 292 294 291 285 287 274 264 258 251 248 247
316 315 313 312 311 308 305 300 294 290 287 288 290 292 283 278 280 262 263 258 251 247
319 318 317 315 312 308 306 303 298 293 289 287 288 290 286 284 276 264 256 257 255 247
322 320 319 316 313 310 306 303 299 295 291 288 287 284 283 282 276 268 258 258 255 249
323 322 320 318 314 310 307 303 299 296 293 288 287 281 282 286 278 271 259 257 251 256
322 321 320 320 318 314 310 305 301 296 293 289 284 277 282 287 280 273 259 252 250 259
324 323 324 323 321 316 312 306 299 297 296 291 285 279 286 284 278 274 263 257 250 256
325 323 323 324 321 319 316 310 303 299 298 292 290 290 290 284 277 270 262 254 252 246
327 323 322 323 324 323 320 313 309 306 303 299 296 296 291 281 270 265 257 249 244 248
327 324 323 320 322 323 319 316 316 309 303 300 297 296 296 281 268 261 251 236 249 234
327 325 321 321 319 320 320 318 313 308 306 302 298 302 297 292 268 251 239 241 250 228
329 327 326 321 321 324 320 316 313 313 313 310 299 294 290 291 263 243 248 224 203 203